Location: Lac Lasalle
(46.0398°N, 74.1576°W)
Time: 21:52:30
(UTC-05:00)

AO-73 - Pass Details

Date: 17 December 2019
Orbit: 582 x 664 km, 97.6° (Epoch: 23 January)

Event Time Altitude Azimuth Distance (km) Brightness Sun altitude
Rises 06:41:39 0° 9° (N) 2,841 ? -8.6°
Reaches altitude 10° 06:43:51 10° 6° (N) 1,927 ? -8.3°
Maximum altitude 06:47:58 61° 286° (WNW) 667 ? -7.6°
Drops below altitude 10° 06:52:00 10° 207° (SSW) 1,895 ? -7.0°
Sets 06:54:09 0° 203° (SSW) 2,789 ? -6.7°
